Simultaneous Nadir Overpasses (SNOs) Predictions

Prediction of SNOs between GOES-15 and NOAA-20 Satellite Orbit:

Table of predicted SNOs for the next 14.0 days since TLE Epoch: 7/30/2022
Index Date Time (GOES-15) GOES-15 Lat,Lon NOAA-20 Lat,Lon Distance(km) Time Diff (sec)
1 07/30/2022 22:08:32 0.33,-128.04 -0.37,-131.14 352.96 80
2 07/31/2022 21:52:27 0.32,-128.02 0.65,-126.61 161.00 80
3 08/02/2022 10:11:33 -0.35,-127.98 0.55,-131.87 444.30 80
4 08/03/2022 09:55:28 -0.33,-127.94 -0.47,-127.34 69.05 80
5 08/05/2022 21:55:57 0.35,-127.85 0.27,-128.10 29.35 80
6 08/06/2022 21:39:51 0.34,-127.81 1.28,-123.56 483.61 80
7 08/08/2022 09:58:58 -0.37,-127.75 -0.15,-128.84 123.33 80
8 08/09/2022 09:42:52 -0.36,-127.71 -1.11,-124.29 388.67 80
9 08/10/2022 22:02:07 0.39,-127.63 -0.05,-129.60 224.75 80
10 08/11/2022 21:46:02 0.38,-127.58 0.97,-125.07 287.46 80
